Tracking 27112 objects as of 27-Mar-2023
HD Live streaming from Space Station
objects crossing your sky now

STARLINK-1878

Track STARLINK-1878 now!
10-day predictions
STARLINK-1878 is classified as:


NORAD ID: 47163
Int'l Code: 2020-088AT
Perigee: 553.6 km
Apogee: 555.6 km
Inclination: 53.1 °
Period: 95.6 minutes
Semi major axis: 6925 km
RCS: Unknown
Launch date: November 25, 2020
Source: United States (US)
Launch site: AIR FORCE EASTERN TEST RANGE (AFETR)
Your satellite tracking list
Your tracking list is empty




NASA's NSSDC Master Catalog

Two Line Element Set (TLE):
1 47163U 20088AT  23085.80242205  .00021193  00000-0  14402-2 0  9999
2 47163  53.0518 114.9293 0001466  98.0342 262.0814 15.06327381129086
Source of the keplerian elements: AFSPC